Tracking 22882 objects as of 19-Apr-2021
HD Live streaming from Space Station
objects crossing your sky now

STARLINK-1648

Track STARLINK-1648 now!
10-day predictions
STARLINK-1648 is classified as:


NORAD ID: 46533
Int'l Code: 2020-070B
Perigee: 552.8 km
Apogee: 555.9 km
Inclination: 53.1 °
Period: 95.6 minutes
Semi major axis: 6925 km
RCS: Unknown
Launch date: October 6, 2020
Source: United States (US)
Launch site: AIR FORCE EASTERN TEST RANGE (AFETR)
aabbcc
Your satellite tracking list
Your tracking list is empty




NASA's NSSDC Master Catalog

Two Line Element Set (TLE):
1 46533U 20070B   21107.97165899 -.00000503  00000-0 -14880-4 0  9990
2 46533  53.0575 277.4921 0002228 102.7150 257.4088 15.06396003 30202
Source of the keplerian elements: AFSPC